Wakefield, VA

1:24 AM EDT on August 26, 2019 (GMT -0400)
Wakefield Municipal

Weather History for KAKQ - June, 2019

Change the Weather History Date:

Sunday, June 2, 2019

  Actual Average (WUND) Record (WUND)
Temperature  
Mean Temperature 76 °F -  
Max Temperature 89 °F - - (-1)
Min Temperature 64 °F - - (-1)
Cooling Degree Days 11    
Growing Degree Days 26 (Base 50)    
Moisture  
Dew Point 63 °F    
Average Humidity 67    
Maximum Humidity 93    
Minimum Humidity 39    
Precipitation  
Precipitation 0.00 in - - ()
Sea Level Pressure  
Sea Level Pressure 29.79 in    
Wind  
Wind Speed 3 mph (SW)    
Max Wind Speed 9 mph    
Max Gust Speed -    
Visibility 8 miles    
Events Thunderstorm    
Averages and records for this station are not official NWS values.
T = Trace of Precipitation, MM = Missing Value Source: NWS Daily Summary

Daily Weather History Graph

Daily Weather History Graph

Search for Another Location

Airport or City:

Astronomy

Jun. 02, 2019 Rise Set
Actual Time 5:49 AM EDT 8:22 PM EDT
Civil Twilight 5:19 AM EDT 8:52 PM EDT
Nautical Twilight 4:41 AM EDT 9:30 PM EDT
Astronomical Twilight 4:00 AM EDT 10:12 PM EDT
Moon 5:25 AM EDT (6/2) 7:41 PM EDT (6/2)
Length of Visible Light 15h 33m
Length of Day
14h 32m
Waning Crescent, 1% of the Moon is Illuminated
Jun 2
Waning Crescent
Jun 3
New
Jun 10
First Quarter
Jun 17
Full
Jun 25
Last Quarter

Hourly Weather History & Observations

Time (EDT) Temp. Heat Index Dew Point Humidity Pressure Visibility Wind Dir Wind Speed Gust Speed Precip Events Conditions
12:06 AM 66.0 °F - 64.0 °F 93% 29.84 in 3.0 mi Calm Calm - N/A   Clear
12:54 AM 66.9 °F - 64.0 °F 90% 29.85 in 4.0 mi Calm Calm - N/A   Mostly Cloudy
1:54 AM 66.0 °F - 63.0 °F 90% 29.83 in 2.5 mi Calm Calm - N/A   Clear
2:20 AM 64.9 °F - 63.0 °F 93% 29.81 in 3.0 mi Calm Calm - N/A   Clear
2:54 AM 66.0 °F - 63.0 °F 90% 29.79 in 6.0 mi Calm Calm - N/A   Clear
3:54 AM 66.0 °F - 62.1 °F 87% 29.79 in 6.0 mi Calm Calm - N/A   Clear
4:54 AM 64.9 °F - 61.0 °F 87% 29.80 in 5.0 mi Calm Calm - N/A   Clear
5:54 AM 64.0 °F - 61.0 °F 90% 29.80 in 5.0 mi South 3.5 mph - N/A   Clear
6:54 AM 64.9 °F - 61.0 °F 87% 29.81 in 4.0 mi SW 4.6 mph - N/A   Clear
7:54 AM 69.1 °F - 62.1 °F 78% 29.82 in 7.0 mi SW 4.6 mph - N/A   Clear
8:54 AM 73.0 °F - 62.1 °F 68% 29.83 in 8.0 mi SW 6.9 mph - N/A   Clear
9:54 AM 78.1 °F - 64.9 °F 64% 29.83 in 10.0 mi Variable 5.8 mph - N/A   Clear
10:54 AM 81.0 °F 82.7 °F 64.9 °F 58% 29.82 in 9.0 mi WSW 9.2 mph - N/A   Clear
11:54 AM 82.9 °F 84.6 °F 64.9 °F 54% 29.82 in 9.0 mi SW 6.9 mph - N/A   Clear
12:54 PM 84.9 °F 86.1 °F 64.0 °F 49% 29.80 in 9.0 mi SW 9.2 mph - N/A   Clear
1:54 PM 84.9 °F 85.4 °F 62.1 °F 46% 29.79 in 10.0 mi West 4.6 mph - N/A   Scattered Clouds
2:54 PM 87.1 °F 87.5 °F 62.1 °F 43% 29.76 in 10.0 mi WSW 8.1 mph - N/A   Partly Cloudy
3:05 PM 87.1 °F 86.7 °F 60.1 °F 40% 29.76 in 10.0 mi Variable 5.8 mph - N/A Thunderstorm Thunderstorm
3:26 PM 87.1 °F 87.0 °F 61.0 °F 41% 29.75 in 10.0 mi WSW 8.1 mph - N/A Thunderstorm Partly Cloudy
3:39 PM 88.0 °F 87.6 °F 60.1 °F 39% 29.75 in 10.0 mi Variable 6.9 mph - N/A   Partly Cloudy
3:54 PM 88.0 °F 88.4 °F 62.1 °F 42% 29.74 in 10.0 mi West 6.9 mph - N/A   Clear
4:54 PM 88.0 °F 87.9 °F 61.0 °F 40% 29.73 in 10.0 mi WSW 4.6 mph - N/A   Clear
5:54 PM 87.1 °F 87.5 °F 62.1 °F 43% 29.74 in 10.0 mi WSW 4.6 mph - N/A   Clear
6:54 PM 84.0 °F 85.8 °F 64.9 °F 53% 29.74 in 9.0 mi Calm Calm - N/A   Clear
7:54 PM 82.0 °F 84.9 °F 68.0 °F 62% 29.75 in 9.0 mi Calm Calm - N/A   Clear
8:54 PM 73.9 °F - 68.0 °F 82% 29.77 in 8.0 mi Calm Calm - N/A   Clear
9:54 PM 73.0 °F - 68.0 °F 84% 29.79 in 7.0 mi Calm Calm - N/A   Clear
10:54 PM 75.9 °F - 66.0 °F 71% 29.79 in 10.0 mi South 3.5 mph - N/A   Partly Cloudy
11:54 PM 75.0 °F - 64.9 °F 71% 29.79 in 10.0 mi South 4.6 mph - N/A   Clear